Preview of NWS' New Version of Forecast
This preview is not operational and should not be used for support decisions.

Regional Weather Roundup (RWR)

Issued by National Weather Service (NWS)

                            
420 
ASUS43 KLSX 261057
RWRMO 

WEATHER SUMMARY FOR MISSOURI
NATIONAL WEATHER SERVICE SPRINGFIELD MO
600 AM CDT TUE MAR 26 2019

NOTE: "FAIR" INDICATES FEW OR NO CLOUDS BELOW 12,000 FEET WITH NO
       SIGNIFICANT WEATHER AND/OR OBSTRUCTIONS TO VISIBILITY.
       CURRENT SKY AND/OR WEATHER CONDITIONS ARE NOT AVAILABLE FOR
       CHILLICOTHE AND FARMINGTON.

MOZ001>031-035>038-043-044-053-054-261200-
...NORTHERN AND WESTERN MISSOURI...
  
CITY           SKY/WX    TMP DP  RH WIND       PRES   REMARKS
KANSAS CTY INT CLEAR     37  35  92 NE5       30.35R FOG              
LEE'S SUMMIT   CLEAR     39  35  86 NE5       30.35R                  
ST JOSEPH      CLOUDY    37  36  96 N3        30.37R                  
CHILLICOTHE      N/A     35  34  96 CALM      30.39R                  
     
$$
MOZ066>068-077>081-088>096-101>105-261200-
...SOUTHWEST MISSOURI...
  
CITY           SKY/WX    TMP DP  RH WIND       PRES   REMARKS
SPRINGFIELD    FOG       36  34  92 CALM      30.32R VSB 1/4          
JOPLIN         FOG       36  36 100 CALM      30.34R VSB 1/2          
               
$$
MOZ032>034-039>042-045>050-055>058-069>072-261200-
...CENTRAL MISSOURI...  
  
CITY           SKY/WX    TMP DP  RH WIND       PRES   REMARKS
COLUMBIA       NOT AVBL                                               
JEFFERSON CITY MOCLDY    42  32  67 NE3       30.38R                  
ROLLA          MOCLDY    38  31  76 NE5       30.35R                  
SEDALIA        CLEAR     40  35  83 E3        30.36R                  
WARRENSBURG    CLEAR     37  36  93 NE5       30.35S                  
               
$$
MOZ051-052-059>065-261200-
...EAST CENTRAL MISSOURI...
  
CITY           SKY/WX    TMP DP  RH WIND       PRES   REMARKS
ST LOUIS INTL  PTCLDY    33  20  58 NE7       30.38R WCI  27          
                   
$$
MOZ072>076-082>087-097>100-106>115-261200-
...SOUTH CENTRAL AND SOUTHEAST MISSOURI...
  
CITY           SKY/WX    TMP DP  RH WIND       PRES   REMARKS
CAPE GIRARDEAU FAIR      39  33  79 N8        30.31R                  
POPLAR BLUFF   FAIR      40  37  89 N6        30.31R                  
WEST PLAINS    CLOUDY    41  37  86 N3        30.32R                  
                                       
$$